Flag for Chile Weather past 2 weeks in Viña del Mar, Chile

Now
46 °F

Passing clouds.


Feels Like: 46 °F
Forecast: 55 / 65 °F
Wind: 2 mph from North

Location: Pudahuel

Current Time: May 23, 2015 at 2:08:30 AM

Latest Report: May 23, 2015 at 1:00 AM


Visibility: 3 mi

Pressure: 30.07 "Hg

Humidity: 82%

Dew point: 41 °F

Location of Viña del MarLocation

Historic Weather in Viña del Mar — Graph

°F

Viña del Mar temperature yesterday

Maximum temperature yesterday: 61 °F (at 3:00 PM)
Minimum temperature yesterday: 41 °F (at 6:00 AM)
Average temperature yesterday: 51 °F

Past Weeks' High & Low Weather Summary

 TemperatureHumidityPressure
High86 °F (May 19, 4:00 PM)100% (May 22, 7:00 AM)30.15 "Hg (May 22, 7:00 AM)
Low39 °F (May 14, 9:00 AM)8% (May 19, 4:00 PM)29.83 "Hg (May 11, 4:00 PM)
Average55 °F60%30.03 "Hg
* Reported May 8 1:00 AM — May 23 1:00 AM, Viña del Mar, Weather by CustomWeather, © 2015

Note: Actual official high and low records may vary slightly from our data, if they occured in-between our weather recording intervals... More about our weather records

Advertising

Viña del Mar weather history for previous 24 hours

 ConditionsComfort  
Time TempWeatherWind HumidityBarometerVisibility
1:00 AM
Sat, May 23
46 °FPassing clouds.2 mph82%30.07 "Hg3 mi
12:00 AM48 °FClear.2 mph82%30.09 "Hg4 mi
11:00 PM
Fri, May 22
50 °FClear.2 mph82%30.07 "Hg4 mi
10:00 PM52 °FClear.1 mph77%30.09 "Hg10 mi
9:00 PM55 °FPassing clouds.3 mph72%30.07 "HgN/A
8:00 PM55 °FClear.6 mph72%30.07 "Hg10 mi
7:00 PM57 °FClear.9 mph72%30.07 "Hg10 mi
6:00 PM59 °FClear.13 mph63%30.07 "Hg10 mi
5:00 PM61 °FClear.12 mph63%30.07 "Hg5 mi
4:00 PM61 °FClear.12 mph63%30.07 "Hg4 mi
3:00 PM61 °FHaze.9 mph63%30.07 "Hg3 mi
2:00 PM59 °FHaze.3 mph63%30.07 "Hg3 mi
1:00 PM55 °FHaze.2 mph72%30.09 "Hg3 mi
12:00 PM52 °FBroken clouds.No wind77%30.09 "Hg2 mi
11:00 AM46 °FBroken clouds.1 mph87%30.09 "Hg2 mi
10:00 AM45 °FQuite cool.2 mph87%30.09 "Hg2 mi
9:00 AM41 °FSnow. Cloudy.2 mph93%30.07 "Hg1 mi
8:00 AM43 °FQuite cool.3 mph87%30.07 "Hg1 mi
7:00 AM41 °FQuite cool.2 mph100%30.07 "Hg1 mi
6:00 AM41 °FFog.2 mph93%30.07 "Hg0 mi
5:00 AM45 °FFog.3 mph87%30.07 "Hg1 mi
4:00 AM45 °FFog.2 mph87%30.09 "Hg2 mi
3:00 AM45 °FFog.2 mph87%30.09 "Hg2 mi
2:00 AM46 °FClear.2 mph82%30.09 "Hg4 mi
Weather by CustomWeather, © 2015

See weather overviewHow to use our weather pages